Location: Drocourt
(49.0571°N, 1.7669°E)
Time: 19:39:17
(UTC+00:00)

Transit 4A - Pass Details

Date: 19 April 2024
Orbit: 871 x 971 km, 66.8° (Epoch: 18 May)

Event Time Altitude Azimuth Distance (km) Brightness Sun altitude
Rises 22:08:01 0° 319° (NW) 3,470 12.2 -25.2°
Reaches altitude 10° 22:10:38 10° 312° (NW) 2,528 11.1 -25.4°
Maximum altitude 22:15:58 38° 246° (WSW) 1,304 8.6 -25.8°
Enters shadow 22:16:51 36° 226° (SW) 1,354 8.6 -25.8°
Drops below altitude 10° 22:21:19 10° 180° (S) 2,539 - -26.1°
Sets 22:23:58 0° 173° (S) 3,486 - -26.3°
